QPF
0.00 0.00 0.00 0.00 0.00 0.00 0.00 0.00 0.00 0.00 0.00 0.00 0.00 0.00 0.00 0.00 0.00 0.00 0.00 0.00 0.00 0.00 0.00 0.00 0.00 0.00 0.00 0.00 0.00 0.00 0.00 0.00 0.00 0.00 0.00 0.00 0.00 0.00 0.00 0.00 0.00 0.00 0.00 0.00 0.00 0.00 0.00
0.00 0.00 0.00 0.00 0.00 0.00 0.00 0.00 0.00 0.00 0.00 0.00 0.00 0.00 0.00 0.00 0.00 0.00 0.00 0.00 0.00 0.00 0.00 0.00 0.00 0.00 0.00 0.00 0.00 0.00 0.00 0.00 0.00 0.00 0.00 0.00 0.00 0.00 0.00 0.00 0.00 0.00 0.00 0.00 0.00 0.00 0.00
0.00 0.00 0.00 0.00 0.00 0.00 0.00 0.00 0.00 0.00 0.00 0.00 0.00 0.00 0.00 0.00 0.00 0.00 0.00 0.00 0.00 0.00 0.00 0.00 0.00 0.00 0.00 0.00 0.00 0.00 0.00 0.00 0.00 0.00 0.00 0.00 0.00 0.00 0.00 0.00 0.00 0.00 0.00 0.00 0.00 0.00 0.00
0.00 0.00 0.00 0.00 0.00 0.00 0.00 0.00 0.00 0.00 0.00 0.00 0.00 0.00 0.00 0.00 0.00 0.00 0.00 0.00 0.00 0.00 0.00 0.00 0.00 0.00 0.00 0.00 0.00 0.00 0.00 0.00 0.00 0.00 0.00 0.00 0.00 0.00 0.00 0.00 0.00 0.00 0.00 0.00 0.00 0.00 0.00
0.00 0.00 0.00 0.00 0.00 0.00 0.00 0.00 0.00 0.00 0.00 0.00 0.00 0.00 0.00 0.00 0.00 0.00 0.00 0.00 0.00 0.00 0.00 0.00 0.00 0.00 0.00 0.00 0.00 0.00 0.00 0.00 0.00 0.00 0.00 0.00 0.00 0.00 0.00 0.00 0.00 0.00 0.00 0.00 0.00 0.00 0.00
0.00 0.00 0.00 0.00 0.00 0.00 0.00 0.00 0.00 0.00 0.00 0.00 0.00 0.00 0.00 0.00 0.00 0.00 0.00 0.00 0.00 0.00 0.00 0.00 0.00 0.00 0.00 0.00 0.00 0.00 0.00 0.00 0.00 0.00 0.00 0.00 0.00 0.00 0.00 0.00 0.00 0.00 0.00 0.00 0.00 0.00 0.00
0.00 0.00 0.00 0.00 0.00 0.00 0.00 0.00 0.00 0.00 0.00 0.00 0.00 0.00 0.00 0.00 0.00 0.00 0.00 0.00 0.00 0.00 0.00 0.00 0.00 0.00 0.00 0.00 0.00 0.00 0.00 0.00 0.00 0.00 0.00 0.00 0.00 0.00 0.00 0.00 0.00 0.00 0.00 0.00 0.00 0.00 0.00
0.00 0.00 0.00 0.00 0.00 0.00 0.00 0.00 0.00 0.00 0.00 0.00 0.00 0.00 0.00 0.00 0.00 0.00 0.00 0.00 0.00 0.00 0.00 0.00 0.00 0.00 0.00 0.00 0.00 0.00 0.00 0.00 0.00 0.00 0.00 0.00 0.00 0.00 0.00 0.00 0.00 0.00 0.00 0.00 0.00 0.00 0.00
0.00 0.00 0.00 0.00 0.00 0.00 0.00 0.00 0.00 0.00 0.00 0.00 0.00 0.00 0.00 0.00 0.00 0.00 0.00 0.00 0.00 0.00 0.00 0.00 0.00 0.00 0.00 0.00 0.00 0.00 0.00 0.00 0.00 0.00 0.00 0.00 0.00 0.00 0.00 0.00 0.00 0.00 0.00 0.00 0.00 0.00 0.00
0.00 0.00 0.00 0.00 0.00 0.00 0.00 0.00 0.00 0.00 0.00 0.00 0.00 0.00 0.00 0.00 0.00 0.00 0.00 0.00 0.00 0.00 0.00 0.00 0.00 0.00 0.00 0.00 0.00 0.00 0.00 0.00 0.00 0.00 0.00 0.00 0.00 0.00 0.00 0.00 0.00 0.00 0.00 0.00 0.00 0.00 0.00
0.00 0.00 0.00 0.00 0.00 0.00 0.00 0.00 0.00 0.00 0.00 0.00 0.00 0.00 0.00 0.00 0.00 0.00 0.00 0.00 0.00 0.00 0.00 0.00 0.00 0.00 0.00 0.00 0.00 0.00 0.00 0.00 0.00 0.00 0.00 0.00 0.00 0.00 0.00 0.00 0.00 0.00 0.00 0.00 0.00 0.00 0.00
0.00 0.00 0.00 0.00 0.00 0.00 0.00 0.00 0.00 0.00 0.00 0.00 0.00 0.00 0.00 0.00 0.00 0.00 0.00 0.00 0.00 0.00 0.00 0.00 0.00 0.00 0.00 0.00 0.00 0.00 0.00 0.00 0.00 0.00 0.00 0.00 0.00 0.00 0.00 0.00 0.00 0.00 0.00 0.00 0.00 0.00 0.00
0.00 0.00 0.00 0.00 0.00 0.00 0.00 0.00 0.00 0.00 0.00 0.00 0.00 0.00 0.00 0.00 0.00 0.00 0.00 0.00 0.00 0.00 0.00 0.00 0.00 0.00 0.00 0.00 0.00 0.00 0.00 0.00 0.00 0.00 0.00 0.00 0.00 0.00 0.00 0.00 0.00 0.00 0.00 0.00 0.00 0.00 0.00
0.00 0.00 0.00 0.00 0.00 0.00 0.00 0.00 0.00 0.00 0.00 0.00 0.00 0.00 0.00 0.00 0.00 0.00 0.00 0.00 0.00 0.00 0.00 0.00 0.00 0.00 0.00 0.00 0.00 0.00 0.00 0.00 0.00 0.00 0.00 0.00 0.00 0.00 0.00 0.00 0.00 0.00 0.00 0.00 0.00 0.00 0.00
0.00 0.00 0.00 0.00 0.00 0.00 0.00 0.00 0.00 0.00 0.00 0.00 0.00 0.00 0.00 0.00 0.00 0.00 0.00 0.00 0.00 0.00 0.00 0.00 0.00 0.00 0.00 0.00 0.00 0.00 0.00 0.00 0.00 0.00 0.00 0.00 0.00 0.00 0.00 0.00 0.00 0.00 0.00 0.00 0.00 0.00 0.00
0.00 0.00 0.00 0.00 0.00 0.00 0.00 0.00 0.00 0.00 0.00 0.00 0.00 0.00 0.00 0.00 0.00 0.00 0.00 0.00 0.00 0.00 0.00 0.00 0.00 0.00 0.00 0.00 0.00 0.00 0.00 0.00 0.00 0.00 0.00 0.00 0.00 0.00 0.00 0.00 0.00 0.00 0.00 0.00 0.00 0.00 0.00
0.00 0.00 0.00 0.00 0.00 0.00 0.00 0.00 0.00 0.00 0.00 0.00 0.00 0.00 0.00 0.00 0.00 0.00 0.00 0.00 0.00 0.00 0.00 0.00 0.00 0.00 0.00 0.00 0.00 0.00 0.00 0.00 0.00 0.00 0.00 0.00 0.00 0.00 0.00 0.00 0.00 0.00 0.00 0.00 0.00 0.00 0.00
0.00 0.00 0.00 0.00 0.00 0.00 0.00 0.00 0.00 0.00 0.00 0.00 0.00 0.00 0.00 0.00 0.00 0.00 0.00 0.00 0.00 0.00 0.00 0.00 0.00 0.00 0.00 0.00 0.00 0.00 0.00 0.00 0.00 0.00 0.00 0.00 0.00 0.00 0.00 0.00 0.00 0.00 0.00 0.00 0.00 0.00 0.00
0.00 0.00 0.00 0.00 0.00 0.00 0.00 0.00 0.00 0.00 0.00 0.00 0.00 0.00 0.00 0.00 0.00 0.00 0.00 0.00 0.00 0.00 0.00 0.00 0.00 0.00 0.00 0.00 0.00 0.00 0.00 0.00 0.00 0.00 0.00 0.00 0.00 0.00 0.00 0.00 0.00 0.00 0.00 0.00 0.00 0.00 0.00
0.00 0.00 0.00 0.00 0.00 0.00 0.00 0.00 0.00 0.00 0.00 0.00 0.00 0.00 0.00 0.00 0.00 0.00 0.00 0.00 0.00 0.00 0.00 0.00 0.00 0.00 0.00 0.00 0.00 0.00 0.00 0.00 0.00 0.00 0.00 0.00 0.00 0.00 0.00 0.00 0.00 0.00 0.00 0.00 0.00 0.00 0.00
0.00 0.00 0.00 0.00 0.00 0.00 0.00 0.00 0.00 0.00 0.00 0.00 0.00 0.00 0.00 0.00 0.00 0.00 0.00 0.00 0.00 0.00 0.00 0.00 0.00 0.00 0.00 0.00 0.00 0.00 0.00 0.00 0.00 0.00 0.00 0.00 0.00 0.00 0.00 0.00 0.00 0.00 0.00 0.00 0.00 0.00 0.00
0.00 0.00 0.00 0.00 0.00 0.00 0.00 0.00 0.00 0.00 0.00 0.00 0.00 0.00 0.00 0.00 0.00 0.00 0.00 0.00 0.00 0.00 0.00 0.00 0.00 0.00 0.00 0.00 0.00 0.00 0.00 0.00 0.00 0.00 0.00 0.00 0.00 0.00 0.00 0.00 0.00 0.00 0.00 0.00 0.00 0.00 0.00
0.00 0.00 0.00 0.00 0.00 0.00 0.00 0.00 0.00 0.00 0.00 0.00 0.00 0.00 0.00 0.00 0.00 0.00 0.00 0.00 0.00 0.00 0.00 0.00 0.00 0.00 0.00 0.00 0.00 0.00 0.00 0.00 0.00 0.00 0.00 0.00 0.00 0.00 0.00 0.00 0.00 0.00 0.00 0.00 0.00 0.00 0.00
0.00 0.00 0.00 0.00 0.00 0.00 0.00 0.00 0.00 0.00 0.00 0.00 0.00 0.00 0.00 0.00 0.00 0.00 0.00 0.00 0.00 0.00 0.00 0.00 0.00 0.00 0.00 0.00 0.00 0.00 0.00 0.00 0.00 0.00 0.00 0.00 0.00 0.00 0.00 0.00 0.00 0.00 0.00 0.00 0.00 0.00 0.00
0.00 0.00 0.00 0.00 0.00 0.00 0.00 0.00 0.00 0.00 0.00 0.00 0.00 0.00 0.00 0.00 0.00 0.00 0.00 0.00 0.00 0.00 0.00 0.00 0.00 0.00 0.00 0.00 0.00 0.00 0.00 0.00 0.00 0.00 0.00 0.00 0.00 0.00 0.00 0.00 0.00 0.00 0.00 0.00 0.00 0.00 0.00
0.00 0.00 0.00 0.00 0.00 0.00 0.00 0.00 0.00 0.00 0.00 0.00 0.00 0.00 0.00 0.00 0.00 0.01 0.00 0.00 0.00 0.00 0.00 0.00 0.00 0.00 0.00 0.00 0.00 0.00 0.00 0.00 0.00 0.00 0.00 0.00 0.00 0.00 0.00 0.00 0.00 0.00 0.00 0.00 0.00 0.00 0.00
0.00 0.00 0.00 0.00 0.00 0.00 0.00 0.00 0.00 0.00 0.00 0.00 0.00 0.00 0.00 0.00 0.00 0.00 0.00 0.00 0.00 0.00 0.00 0.00 0.00 0.00 0.00 0.00 0.00 0.00 0.00 0.00 0.00 0.00 0.00 0.00 0.00 0.00 0.00 0.00 0.00 0.00 0.00 0.00 0.00 0.00 0.00
0.00 0.00 0.00 0.00 0.00 0.00 0.00 0.00 0.00 0.00 0.00 0.00 0.00 0.00 0.00 0.00 0.00 0.00 0.00 0.00 0.00 0.00 0.00 0.00 0.00 0.00 0.00 0.00 0.00 0.00 0.00 0.00 0.00 0.00 0.00 0.00 0.00 0.00 0.00 0.00 0.00 0.00 0.00 0.00 0.00 0.00 0.00
0.00 0.00 0.00 0.00 0.00 0.00 0.00 0.00 0.00 0.00 0.00 0.00 0.00 0.00 0.00 0.00 0.00 0.00 0.00 0.00 0.00 0.00 0.00 0.00 0.00 0.00 0.00 0.00 0.00 0.00 0.00 0.00 0.00 0.00 0.00 0.00 0.00 0.00 0.00 0.00 0.00 0.00 0.00 0.00 0.00 0.00 0.00
MSLP
1022.06 1021.76 1021.41 1021.10 1020.72 1020.39 1020.15 1019.90 1019.54 1019.19 1018.89 1018.61 1018.14 1017.79 1017.41 1016.99 1016.43 1016.03 1015.66 1015.18 1014.65 1014.17 1013.47 1013.05 1012.67 1012.15 1011.47 1010.75 1008.69 1007.81 1008.18 1008.86 1009.84 1010.04 1010.14 1010.21 1010.85 1011.11 1010.71 1009.71 1009.48 1010.02 1009.25 1009.02 1009.08 1009.13 1009.24
1022.23 1021.95 1021.69 1021.31 1020.96 1020.55 1020.16 1019.85 1019.58 1019.25 1018.86 1018.55 1018.16 1017.76 1017.30 1016.82 1016.37 1015.81 1015.44 1015.05 1014.47 1013.97 1013.53 1012.95 1012.61 1012.26 1011.64 1009.87 1007.42 1007.78 1008.29 1009.13 1009.31 1009.74 1009.80 1009.89 1009.52 1009.38 1009.46 1009.05 1008.99 1009.06 1008.85 1009.17 1009.49 1009.54 1009.57
1022.42 1022.13 1021.83 1021.52 1021.15 1020.72 1020.32 1019.87 1019.55 1019.27 1018.88 1018.53 1018.14 1017.74 1017.27 1016.71 1016.16 1015.63 1015.05 1014.70 1014.20 1013.75 1013.28 1013.00 1012.66 1012.39 1011.26 1008.24 1007.39 1007.71 1008.06 1008.60 1008.64 1008.76 1009.21 1008.82 1008.40 1008.85 1008.22 1008.55 1008.44 1009.25 1009.63 1009.50 1009.73 1010.07 1010.41
1022.64 1022.31 1021.96 1021.68 1021.30 1020.90 1020.52 1020.05 1019.57 1019.18 1018.90 1018.52 1018.11 1017.69 1017.14 1016.62 1015.99 1015.42 1014.73 1014.15 1013.72 1013.30 1013.07 1012.83 1012.68 1012.22 1010.08 1007.09 1007.10 1007.70 1007.75 1007.76 1007.76 1008.15 1007.91 1007.24 1007.72 1008.04 1007.78 1008.03 1008.64 1009.35 1009.78 1010.21 1010.14 1010.31 1010.61
1022.74 1022.44 1022.09 1021.79 1021.47 1021.09 1020.66 1020.18 1019.66 1019.15 1018.78 1018.45 1018.09 1017.59 1017.02 1016.43 1015.83 1015.14 1014.40 1013.56 1012.99 1012.73 1012.73 1012.76 1012.69 1011.81 1009.12 1006.55 1006.73 1006.06 1006.52 1006.77 1006.94 1007.38 1007.31 1006.72 1007.39 1007.78 1007.70 1008.35 1009.27 1009.60 1009.92 1010.07 1010.35 1010.10 1010.49
1022.86 1022.59 1022.29 1021.91 1021.55 1021.20 1020.81 1020.24 1019.74 1019.29 1018.79 1018.31 1017.95 1017.52 1016.88 1016.20 1015.56 1014.93 1014.02 1013.13 1012.41 1012.48 1012.61 1012.52 1011.99 1011.52 1008.43 1006.77 1006.08 1005.71 1005.70 1006.07 1006.46 1006.59 1006.65 1006.73 1007.60 1008.11 1008.70 1008.95 1009.52 1009.71 1009.85 1009.80 1009.82 1010.04 1010.60
1023.07 1022.74 1022.42 1022.04 1021.66 1021.28 1020.83 1020.38 1019.85 1019.34 1018.87 1018.36 1017.82 1017.34 1016.82 1016.14 1015.39 1014.98 1014.07 1012.74 1012.94 1012.72 1012.16 1011.03 1010.47 1009.39 1007.75 1006.78 1005.93 1005.56 1005.50 1005.79 1006.08 1006.70 1007.34 1007.46 1008.09 1008.45 1007.97 1008.46 1008.60 1008.29 1008.86 1009.06 1009.14 1009.33 1010.10
1023.26 1022.91 1022.56 1022.20 1021.81 1021.35 1020.88 1020.42 1019.91 1019.41 1018.88 1018.36 1017.83 1017.21 1016.60 1015.93 1015.31 1014.92 1015.01 1013.91 1012.84 1013.12 1011.97 1009.74 1009.42 1008.84 1007.75 1007.30 1007.07 1005.66 1005.56 1006.27 1006.59 1007.25 1007.80 1008.24 1008.10 1007.25 1007.31 1007.11 1007.38 1007.34 1008.10 1008.71 1009.01 1009.34 1010.29
1023.43 1023.07 1022.70 1022.31 1021.89 1021.47 1021.00 1020.45 1019.89 1019.41 1018.82 1018.14 1017.53 1016.92 1016.30 1015.50 1014.87 1014.72 1014.41 1013.06 1012.02 1012.11 1011.85 1009.30 1008.41 1007.82 1007.19 1007.15 1006.67 1005.85 1005.73 1006.18 1006.85 1007.51 1008.08 1008.59 1007.35 1007.06 1007.14 1006.63 1007.13 1006.95 1007.38 1008.09 1008.76 1009.88 1010.58
1023.56 1023.24 1022.84 1022.39 1021.95 1021.52 1021.07 1020.53 1019.92 1019.15 1018.57 1017.96 1017.42 1016.82 1016.23 1015.17 1014.78 1014.82 1013.58 1012.10 1011.92 1011.85 1011.65 1008.93 1007.82 1006.16 1006.39 1006.38 1006.12 1005.09 1005.35 1005.94 1007.00 1007.47 1008.02 1008.26 1007.20 1007.10 1006.49 1006.35 1006.23 1006.63 1006.65 1007.44 1008.86 1010.02 1011.04
1023.66 1023.32 1022.98 1022.51 1022.00 1021.56 1021.00 1020.42 1019.74 1019.02 1018.36 1017.76 1017.20 1016.78 1016.33 1016.13 1015.72 1014.60 1012.42 1011.84 1011.37 1011.38 1010.91 1007.59 1006.67 1005.00 1005.27 1005.93 1005.59 1005.16 1005.05 1005.59 1006.57 1007.36 1007.94 1007.54 1007.10 1006.58 1006.36 1005.80 1005.62 1006.27 1006.59 1007.73 1009.02 1010.15 1010.95
1023.65 1023.28 1022.97 1022.55 1022.02 1021.54 1020.97 1020.32 1019.66 1018.94 1018.13 1017.38 1016.77 1016.53 1016.22 1016.15 1015.83 1013.36 1012.22 1011.59 1011.48 1011.89 1009.60 1006.71 1005.59 1005.31 1005.77 1005.68 1005.67 1005.34 1005.26 1005.51 1006.30 1007.28 1007.82 1007.67 1006.81 1006.35 1005.60 1005.31 1005.44 1005.97 1007.10 1008.73 1010.17 1011.06 1011.76
1023.68 1023.32 1022.99 1022.55 1022.09 1021.51 1020.91 1020.26 1019.54 1018.71 1017.95 1017.07 1016.14 1015.84 1016.04 1015.58 1013.97 1012.78 1012.10 1011.84 1012.51 1011.84 1008.53 1006.98 1006.05 1005.73 1005.70 1006.04 1006.18 1006.08 1006.20 1006.51 1007.12 1007.96 1008.37 1007.72 1006.79 1005.92 1005.26 1005.49 1005.92 1006.62 1008.54 1010.19 1011.33 1012.11 1012.05
1023.68 1023.37 1023.01 1022.60 1022.11 1021.51 1020.86 1020.15 1019.43 1018.66 1017.71 1016.67 1015.49 1014.68 1014.27 1013.79 1013.05 1012.67 1012.65 1012.91 1012.61 1010.30 1008.96 1006.97 1006.32 1006.26 1006.36 1006.33 1006.48 1006.69 1007.13 1007.56 1007.55 1007.95 1008.83 1008.52 1007.08 1005.73 1005.17 1005.30 1006.12 1007.29 1008.72 1010.53 1011.95 1012.86 1012.04
1023.63 1023.36 1023.04 1022.62 1022.08 1021.52 1020.93 1020.22 1019.41 1018.60 1017.64 1016.36 1014.92 1014.25 1014.01 1012.00 1012.53 1013.07 1013.41 1013.50 1012.06 1010.40 1008.67 1007.60 1006.60 1006.49 1006.72 1006.50 1006.69 1007.06 1007.42 1007.72 1007.44 1007.52 1008.32 1008.56 1007.46 1005.79 1005.34 1005.17 1005.58 1007.45 1008.83 1009.55 1011.18 1012.71 1012.49
1023.52 1023.30 1023.01 1022.57 1022.11 1021.56 1021.04 1020.34 1019.62 1018.70 1017.42 1016.35 1015.85 1015.06 1013.15 1011.32 1011.77 1012.57 1013.51 1013.27 1011.74 1010.11 1008.64 1007.73 1007.24 1006.76 1006.85 1006.91 1007.19 1007.26 1007.53 1006.61 1006.93 1006.83 1006.73 1008.19 1007.99 1006.11 1005.21 1004.90 1005.75 1006.30 1007.73 1009.69 1011.32 1012.59 1012.88
1023.36 1023.06 1022.87 1022.62 1022.21 1021.68 1021.10 1020.47 1019.82 1018.86 1017.47 1016.21 1016.02 1015.10 1011.87 1011.49 1011.63 1012.71 1013.29 1012.65 1011.32 1009.74 1008.85 1008.19 1007.60 1007.11 1006.71 1006.57 1006.62 1007.18 1006.80 1005.99 1005.75 1006.25 1006.81 1007.85 1008.26 1006.96 1005.73 1005.44 1005.87 1006.65 1007.68 1009.42 1010.90 1011.85 1012.36
1023.23 1022.84 1022.62 1022.42 1022.16 1021.74 1021.20 1020.57 1019.95 1019.21 1017.98 1016.88 1017.16 1015.75 1012.09 1011.87 1012.67 1013.26 1013.06 1011.87 1010.84 1009.68 1009.12 1008.53 1007.75 1007.20 1006.65 1006.12 1006.26 1006.25 1006.01 1005.12 1004.02 1005.23 1006.91 1007.20 1008.06 1008.15 1007.25 1005.81 1005.68 1006.04 1006.83 1008.52 1010.64 1011.99 1012.23
1023.42 1022.68 1022.42 1022.28 1022.02 1021.70 1021.23 1020.71 1020.12 1019.60 1019.17 1018.93 1018.15 1016.16 1012.45 1012.42 1013.01 1013.38 1012.46 1011.65 1010.71 1009.91 1009.17 1008.66 1007.64 1006.80 1006.22 1006.15 1005.97 1005.09 1004.56 1003.58 1003.83 1004.61 1005.12 1006.52 1007.67 1008.38 1007.31 1006.63 1006.04 1005.94 1006.39 1007.61 1009.33 1010.33 1011.39
1023.53 1023.04 1022.67 1022.38 1022.03 1021.66 1021.26 1020.75 1020.18 1019.64 1019.23 1019.01 1018.47 1016.95 1014.18 1013.07 1012.94 1012.79 1012.46 1011.55 1010.60 1009.31 1008.80 1008.12 1007.30 1006.75 1006.47 1006.05 1005.44 1004.88 1003.95 1003.12 1003.01 1003.29 1003.63 1004.94 1007.08 1007.47 1007.21 1006.50 1005.77 1005.86 1006.06 1006.97 1008.29 1009.44 1010.47
1023.72 1023.33 1022.94 1022.53 1022.10 1021.71 1021.30 1020.79 1020.26 1019.59 1019.07 1019.01 1018.57 1017.58 1016.30 1014.81 1013.56 1013.19 1012.57 1011.57 1010.62 1009.80 1008.67 1007.73 1007.03 1006.65 1006.28 1006.11 1005.25 1004.80 1003.91 1003.35 1002.67 1002.98 1003.83 1004.67 1006.38 1006.90 1006.22 1005.65 1005.40 1005.21 1005.53 1006.37 1007.40 1007.52 1008.18
1023.99 1023.60 1023.17 1022.69 1022.25 1021.86 1021.48 1021.01 1020.47 1019.76 1019.06 1018.97 1018.78 1018.45 1016.99 1015.99 1014.42 1013.18 1012.26 1011.26 1010.39 1009.24 1008.70 1007.80 1007.33 1006.06 1005.98 1005.82 1004.60 1004.15 1003.81 1003.25 1003.06 1003.34 1004.01 1005.06 1006.10 1006.46 1006.44 1005.90 1005.39 1004.97 1004.50 1005.05 1005.76 1006.52 1006.74
1024.08 1023.71 1023.32 1022.87 1022.42 1022.04 1021.58 1021.12 1020.64 1020.10 1019.41 1019.50 1019.09 1018.52 1018.27 1016.17 1014.86 1013.53 1012.31 1011.53 1010.30 1009.50 1007.47 1006.63 1006.11 1005.94 1005.29 1004.02 1003.51 1003.21 1003.04 1002.93 1002.99 1003.42 1004.35 1005.34 1005.84 1007.08 1007.01 1006.14 1005.40 1004.91 1004.19 1004.24 1004.46 1004.83 1005.38
1024.11 1023.72 1023.37 1022.91 1022.46 1022.05 1021.66 1021.20 1020.80 1020.55 1020.38 1020.42 1019.95 1019.52 1019.12 1016.92 1015.48 1013.91 1012.58 1011.59 1010.34 1009.70 1008.52 1006.52 1005.90 1005.70 1003.76 1002.96 1002.98 1003.13 1003.24 1003.16 1003.02 1003.19 1003.81 1004.99 1006.53 1006.61 1007.42 1006.79 1006.05 1004.30 1003.43 1003.16 1004.01 1004.07 1004.55
1024.18 1023.74 1023.34 1022.93 1022.51 1022.07 1021.69 1021.26 1020.89 1020.69 1020.41 1020.38 1019.90 1019.86 1019.19 1017.66 1015.74 1013.98 1012.84 1011.57 1010.34 1009.18 1008.19 1006.76 1005.26 1004.62 1004.14 1003.77 1004.10 1004.19 1004.27 1003.73 1003.37 1003.37 1004.11 1004.58 1005.97 1007.52 1007.85 1007.37 1006.17 1004.22 1003.37 1003.04 1003.45 1004.06 1004.31
1024.12 1023.73 1023.33 1022.88 1022.43 1022.05 1021.64 1021.22 1020.86 1020.60 1020.29 1019.99 1019.56 1019.56 1019.30 1018.18 1015.23 1014.09 1013.21 1011.98 1011.04 1009.94 1008.47 1006.77 1005.25 1004.41 1004.28 1004.76 1005.52 1005.95 1005.65 1004.98 1004.60 1004.24 1004.91 1005.29 1005.80 1006.81 1008.52 1008.01 1006.75 1004.17 1003.19 1002.42 1002.77 1003.87 1003.95
1024.04 1023.61 1023.13 1022.66 1022.27 1021.89 1021.48 1021.12 1020.83 1020.48 1020.23 1020.01 1019.43 1019.23 1019.17 1018.20 1015.17 1013.96 1013.00 1012.30 1011.37 1010.78 1010.14 1008.51 1007.39 1005.80 1005.13 1006.18 1007.00 1007.24 1006.57 1005.39 1005.40 1005.37 1005.65 1006.28 1007.17 1007.71 1008.18 1007.64 1006.13 1004.11 1003.60 1003.29 1003.64 1004.15 1003.55
1023.78 1023.37 1022.94 1022.47 1022.03 1021.64 1021.19 1020.79 1020.53 1020.29 1020.08 1019.84 1019.06 1018.90 1018.81 1017.95 1015.13 1013.38 1012.44 1011.88 1011.20 1011.14 1010.76 1008.94 1008.07 1007.31 1007.14 1007.63 1008.09 1008.02 1007.45 1006.56 1006.22 1005.93 1006.02 1006.71 1007.31 1008.09 1008.28 1007.65 1006.12 1004.50 1004.00 1004.01 1003.78 1003.93 1004.12
1023.62 1023.17 1022.68 1022.17 1021.69 1021.31 1020.92 1020.60 1020.20 1020.04 1019.79 1019.48 1019.09 1018.31 1018.45 1018.45 1014.91 1012.62 1011.49 1010.38 1010.13 1009.78 1010.37 1009.70 1009.09 1008.39 1008.06 1008.39 1008.87 1008.61 1008.19 1007.56 1007.32 1006.99 1006.19 1006.97 1007.29 1007.32 1007.48 1006.56 1005.57 1004.93 1004.12 1003.82 1003.88 1004.18 1004.93
Thickness
5720 5726 5731 5736 5743 5750 5754 5759 5763 5767 5770 5774 5779 5783 5787 5791 5798 5802 5807 5812 5817 5822 5829 5834 5839 5843 5849 5840 5848 5880 5877 5871 5862 5857 5847 5841 5828 5820 5812 5831 5834 5818 5834 5838 5834 5834 5831
5715 5720 5725 5730 5736 5744 5751 5756 5761 5765 5769 5773 5777 5782 5786 5791 5796 5803 5807 5813 5818 5824 5829 5836 5840 5843 5843 5826 5883 5882 5877 5872 5867 5859 5853 5851 5845 5847 5832 5835 5833 5841 5842 5837 5833 5829 5835
5708 5713 5718 5724 5730 5736 5744 5752 5758 5762 5767 5771 5775 5780 5786 5791 5797 5802 5809 5814 5820 5825 5831 5834 5839 5842 5839 5847 5884 5883 5882 5874 5875 5869 5855 5866 5869 5852 5856 5839 5855 5842 5823 5834 5832 5828 5823
5700 5706 5711 5717 5724 5730 5736 5745 5753 5760 5764 5769 5773 5778 5785 5790 5797 5803 5810 5817 5823 5828 5831 5835 5838 5840 5835 5887 5887 5881 5882 5879 5883 5880 5877 5886 5881 5866 5861 5864 5849 5830 5826 5804 5827 5828 5828
5693 5698 5704 5710 5717 5723 5730 5737 5747 5755 5762 5766 5771 5777 5783 5790 5796 5804 5811 5820 5827 5830 5832 5833 5835 5837 5835 5890 5877 5893 5891 5877 5883 5881 5881 5891 5879 5861 5865 5838 5820 5825 5799 5810 5817 5836 5830
5686 5690 5695 5702 5709 5717 5723 5731 5740 5749 5757 5764 5769 5775 5781 5789 5796 5803 5813 5822 5829 5830 5831 5833 5837 5828 5855 5858 5882 5892 5897 5891 5877 5876 5871 5869 5854 5837 5828 5819 5788 5802 5807 5816 5815 5830 5829
5676 5682 5688 5695 5702 5710 5717 5724 5733 5742 5751 5759 5766 5773 5779 5786 5794 5800 5810 5821 5815 5814 5826 5828 5834 5840 5856 5876 5891 5886 5893 5884 5880 5864 5838 5851 5830 5816 5834 5833 5838 5833 5824 5821 5832 5842 5829
5668 5672 5679 5687 5695 5704 5712 5719 5727 5735 5745 5753 5762 5771 5778 5785 5792 5797 5798 5807 5813 5814 5803 5840 5840 5844 5861 5870 5850 5874 5891 5860 5855 5832 5841 5827 5815 5849 5853 5852 5845 5845 5827 5824 5837 5840 5830
5662 5666 5672 5680 5689 5698 5707 5714 5722 5730 5738 5749 5758 5768 5776 5785 5792 5796 5800 5810 5823 5822 5800 5828 5843 5842 5852 5861 5848 5857 5875 5861 5846 5834 5832 5818 5840 5858 5849 5847 5840 5839 5827 5829 5832 5828 5830
5660 5663 5669 5676 5685 5694 5702 5710 5718 5726 5735 5743 5753 5762 5771 5783 5790 5791 5800 5817 5821 5822 5772 5809 5831 5848 5859 5861 5845 5881 5881 5866 5844 5830 5832 5827 5852 5850 5846 5842 5848 5831 5858 5852 5828 5813 5784
5660 5664 5668 5675 5682 5690 5699 5706 5714 5723 5731 5740 5748 5756 5764 5770 5775 5786 5809 5816 5822 5815 5743 5826 5832 5875 5864 5846 5855 5863 5883 5866 5837 5835 5836 5827 5840 5844 5839 5850 5861 5842 5863 5853 5833 5814 5808
5662 5665 5669 5674 5680 5686 5693 5701 5709 5717 5727 5735 5745 5751 5757 5763 5767 5793 5805 5812 5809 5756 5744 5820 5839 5837 5836 5844 5848 5859 5863 5873 5863 5838 5837 5832 5859 5858 5852 5867 5869 5866 5853 5829 5809 5799 5781
5661 5665 5668 5672 5678 5684 5690 5696 5703 5712 5721 5730 5742 5749 5752 5758 5774 5789 5800 5795 5745 5731 5805 5813 5817 5827 5826 5821 5829 5838 5837 5831 5815 5805 5803 5824 5839 5856 5870 5852 5857 5847 5813 5772 5781 5767 5773
5662 5663 5664 5668 5673 5678 5684 5691 5698 5706 5716 5728 5740 5750 5757 5763 5776 5781 5783 5759 5733 5772 5777 5813 5819 5813 5806 5818 5823 5823 5817 5806 5827 5817 5792 5793 5794 5848 5867 5855 5842 5839 5822 5775 5774 5761 5782
5659 5659 5661 5663 5666 5670 5673 5680 5687 5697 5707 5721 5737 5746 5750 5766 5770 5768 5755 5723 5741 5763 5794 5796 5809 5800 5801 5813 5816 5815 5807 5806 5822 5823 5800 5787 5800 5851 5861 5865 5859 5835 5815 5830 5783 5774 5772
5656 5655 5655 5656 5658 5660 5663 5667 5672 5682 5696 5708 5715 5726 5742 5763 5764 5756 5730 5726 5751 5776 5793 5796 5785 5800 5783 5796 5796 5798 5795 5825 5825 5834 5842 5817 5794 5842 5856 5869 5859 5849 5844 5808 5781 5772 5770
5652 5651 5649 5648 5647 5649 5650 5653 5658 5665 5679 5695 5700 5708 5743 5750 5753 5730 5716 5726 5754 5778 5788 5780 5782 5789 5793 5794 5795 5788 5803 5828 5839 5835 5835 5815 5804 5819 5848 5843 5829 5831 5823 5806 5797 5781 5758
5647 5646 5644 5641 5639 5638 5638 5639 5642 5648 5658 5671 5670 5679 5726 5731 5707 5699 5709 5731 5757 5769 5775 5777 5782 5784 5793 5802 5795 5793 5800 5823 5854 5838 5813 5824 5800 5791 5816 5846 5851 5845 5833 5815 5785 5789 5771
5639 5640 5637 5633 5629 5626 5625 5624 5626 5629 5633 5636 5645 5658 5706 5708 5686 5695 5716 5730 5744 5751 5757 5766 5772 5787 5803 5798 5794 5807 5811 5847 5847 5836 5820 5822 5794 5775 5794 5817 5838 5838 5840 5823 5802 5790 5779
5632 5629 5626 5622 5618 5614 5611 5610 5611 5615 5618 5622 5631 5638 5669 5687 5687 5697 5700 5710 5721 5748 5750 5763 5774 5783 5786 5788 5800 5804 5821 5842 5852 5847 5852 5843 5793 5795 5787 5806 5826 5829 5840 5829 5815 5789 5782
5623 5619 5615 5610 5605 5602 5599 5598 5598 5602 5607 5609 5616 5625 5641 5648 5671 5678 5689 5704 5713 5719 5745 5756 5766 5770 5773 5771 5790 5792 5813 5826 5847 5845 5839 5833 5802 5802 5817 5832 5833 5835 5832 5829 5816 5819 5811
5612 5607 5603 5598 5593 5589 5586 5584 5584 5590 5596 5600 5606 5607 5621 5635 5653 5672 5679 5696 5706 5723 5730 5737 5748 5771 5774 5768 5788 5791 5812 5820 5826 5843 5836 5821 5800 5814 5815 5821 5826 5828 5839 5834 5832 5823 5823
5603 5597 5591 5585 5581 5577 5575 5573 5575 5579 5585 5584 5592 5599 5604 5625 5642 5659 5671 5686 5703 5719 5746 5763 5768 5761 5766 5786 5807 5818 5824 5832 5835 5835 5822 5813 5798 5791 5788 5817 5821 5799 5830 5832 5834 5836 5832
5594 5589 5582 5576 5572 5569 5567 5567 5569 5569 5569 5569 5574 5580 5591 5618 5633 5648 5666 5684 5700 5713 5726 5757 5763 5759 5793 5821 5823 5821 5820 5820 5826 5830 5826 5809 5793 5789 5778 5794 5769 5818 5843 5846 5837 5842 5842
5585 5580 5574 5568 5565 5563 5561 5562 5562 5561 5563 5561 5565 5570 5583 5603 5625 5646 5660 5677 5697 5713 5726 5744 5767 5778 5790 5796 5782 5778 5780 5806 5818 5827 5817 5819 5793 5772 5766 5758 5786 5825 5838 5837 5834 5832 5842
5577 5572 5565 5561 5558 5556 5555 5556 5556 5556 5557 5558 5565 5565 5576 5594 5621 5642 5651 5667 5676 5691 5711 5739 5766 5776 5787 5768 5764 5755 5755 5776 5788 5806 5802 5802 5800 5795 5754 5761 5755 5805 5838 5857 5852 5801 5846
5571 5565 5560 5556 5552 5550 5549 5549 5549 5550 5551 5552 5558 5563 5572 5591 5619 5635 5644 5653 5674 5683 5687 5712 5734 5751 5772 5749 5742 5743 5752 5781 5771 5783 5793 5772 5772 5768 5752 5761 5776 5817 5836 5845 5797 5800 5850
5566 5560 5555 5551 5548 5545 5546 5545 5543 5543 5544 5547 5556 5561 5572 5587 5614 5638 5654 5655 5668 5674 5678 5708 5722 5735 5736 5728 5734 5737 5744 5757 5765 5776 5778 5772 5763 5760 5755 5755 5768 5821 5827 5814 5824 5834 5840
5560 5556 5551 5547 5545 5542 5542 5541 5541 5540 5541 5545 5551 5564 5571 5579 5615 5641 5658 5675 5681 5688 5684 5696 5709 5720 5729 5721 5723 5728 5738 5741 5743 5744 5777 5763 5769 5763 5769 5769 5798 5808 5820 5827 5830 5829 5829